Regional Weather Roundup
Issued by NWS Charleston, SC

Current Version | Previous Version | Graphics & Text | Print | Product List | Glossary On
Versions: 1 2 3 4 5 6 7 8 9 10 11 12 13 14 15 16 17 18 19 20 21 22 23 24 25 26 27 28 29 30 31 32 33 34 35 36 37 38 39 40 41 42 43 44 45 46 47 48 49 50
000
ASUS42 KCHS 300725
RWRCHS

REGIONAL WEATHER ROUNDUP
NATIONAL WEATHER SERVICE CHARLESTON SC
300 AM EDT WED JUL 30 2014

NOTE: "FAIR" INDICATES FEW OR NO CLOUDS BELOW 12,000 FEET WITH NO
SIGNIFICANT WEATHER AND/OR OBSTRUCTIONS TO VISIBILITY.

NOT ALL STATIONS ARE QUALITY CONTROLLED BY THE NATIONAL
WEATHER SERVICE. USE DATA WITH CAUTION...ESPECIALLY
DEWPOINT OBSERVATIONS.

SCZ027-030-031-034>040-042>050-300800-
...SOUTH CAROLINA...

CITY           SKY/WX    TMP DP  RH WIND       PRES   REMARKS
N CHARLESTON   CLEAR     73  69  87 NE3       29.95R
WATERFRONT PRK   N/A     81 N/A N/A NE5         N/A
FORT JOHNSON   NOT AVBL
MOUNT PLEASANT FAIR      72  72 100 CALM      29.95S FOG
JOHNS ISLAND   SUNNY     73  70  88 CALM      29.94F
PINOPOLIS        N/A     77  72  83 CALM      29.86F
MONCKS CORNER    N/A     70  70 100 CALM      29.95S
SUMMERVILLE    FAIR      68  68 100 CALM      29.96S
BEAUFORT MCAS  CLEAR     75  71  87 CALM      29.94S
BEAUFORT ARPT  PTSUNNY   75  75 100 CALM      29.93F
HILTON HEAD IS CLEAR     73  73 100 CALM      29.95S
GEORGETOWN     NOT AVBL
WALTERBORO     SUNNY     70 N/A N/A N3        29.95F
ORANGEBURG     CLOUDY    73  63  70 NE3       29.96S
BARNWELL       FAIR      72  64  78 E3        29.96S
AIKEN          PTSUNNY   70  63  78 CALM      30.00F
MANNING        CLOUDY    70 N/A N/A CALM      29.96S
KINGSTREE      NOT AVBL
COLUMBIA       PTCLDY    71  61  70 S3        29.96F
SUMTER         CLEAR     69  62  78 E2        29.96R
FLORENCE       CLEAR     68  62  81 NE5       29.97S
MYRTLE BEACH   CLEAR     75  68  78 NE3       29.95S
N MYRTLE BEACH PTCLDY    72  66  81 NE6       29.95S

$$

GAZ063-065-086>088-099>101-113>116-118-119-134-136>141-150-300800-
...GEORGIA...

CITY           SKY/WX    TMP DP  RH WIND       PRES   REMARKS
SAVANNAH ARPT  MOCLDY    76  64  66 NW5       29.95S
HUNTER AAF     CLEAR     75  70  84 NW1       29.92F
FORT STEWART   CLEAR     70  66  88 CALM      29.93F
STATESBORO     NOT AVBL
SYLVANIA       PTSUNNY   68  68 100 CALM      29.95F FOG
CLAXTON        FAIR      70  70 100 CALM      29.95S
THOMSON        PTCLDY    65  65 100 CALM      30.03S
AUGUSTA-BUSH   CLEAR     68  61  78 CALM      29.95S
AUGUSTA-DANIEL CLEAR     75  59  57 N7        29.97S
SWAINSBORO     PTSUNNY   70  68  94 NW3       29.97F
VIDALIA          N/A     72  63  73 NW7       29.96S
ALMA           PTCLDY    70  60  70 NW5       29.95F
WAYCROSS       PTCLDY    73  65  75 CALM      29.95S
JESUP          FAIR      73  64  73 CALM      29.94F
BRUNSWICK      MOCLDY    75  72  88 NW3       29.94F
SAINT SIMONS   CLOUDY    80  73  79 CALM      29.93S

$$

SCZ027-028-034-036>038-045-046-048>050-GAZ119-141-300800-
...LAKE AND SUPPLEMENTAL COASTAL OBSERVATIONS...

STATION/POSITION TIME  TEMP    WIND        PRES    WAVE   SWELL
                       AIR SEA DIR/SP/G            HT/PER HT/PER/DIR
                 (UTC) (F)     (DEG/KT/KT) (MB)    (FT/S) (FT/S/D)
UPR LAKE MARION  NOT AVBL
WINYAH BAY       0700   73     330/  1     1014.0S
LAKE MURRAY      0700   72     350/  3/  6 1014.9S
ACE BASIN NERRS  0700   74        CALM     1014.0S
FORT PULASKI     0700   80     290/  5/  6 1013.9F
SAPELO ISLAND    0700   78      10/  5     1014.0S

$$

ANZ835-935-AMZ111-154-330-350-352-354-374-450-454-472-300800-
...C-MAN AND BUOY OBSERVATIONS...

STATION/POSITION TIME  TEMP    WIND        PRES    WAVE   SWELL
                       AIR SEA DIR/SP/G            HT/PER HT/PER/DIR
                 (UTC) (F)     (DEG/KT/KT) (MB)    (FT/S) (FT/S/D)
FOLLY BEACH CMAN 0700   81      70/  5/  6 1014.3R
BUOY 41004       0700   81 84   70/  8/  8 1013.2F   2/ 8   2/ 8
BUOY 41008       0700   83 85   80/  4/  6 1013.4F   2/ 9   2/100/ 9
5E ST. MARYS GA  0700      85                N/A     2/ 9
FRYING PAN BUOY  NOT AVBL
BUOY 41025       0700          VRB 14/ 17  1014.1F   4/ 8   2/120/ 8
CAPE LOOKOUT NC  0700   77      50/ 13/ 14 1014.4F
BUOY 41002       0605   81 80  220/ 16/ 19 1013.3    6/ 6   2/150/ 9
BUOY 41010       0700   83 84  250/ 14/ 17 1013.4F   3/ 5   2/ 90/ 8
BUOY 41012       NOT AVBL
ST AUGUSTINE FL  0700   77     290/  7/  8 1013.6F
CAPERS NEARSHORE 0600   81      90/  6/  6   N/A
FRIPP NEARSHORE  NOT AVBL


$$


USA.gov is the U.S. government's official web portal to all federal, state and local government web resources and services.